EXS1325 EICK-LEBL

Flight info

Callsign EXS1325
Flight time N/A
Altitude 35000
Route ORTOM1P ORTOM DCT TUVEN DCT TULTA/N0451F350 DCT TURDO DCT NENEM DCT BADRU DCT BAGAS DCT PODUX DCT PPN DCT TURPU DCT GOSVI/N0450F340 M601 RONKO/N0450F350 DCT RONNY/N0449F340 M601 GRAUS
Aircraft A321/M-SDE3FGHIRWY/LB1

Departure

Time 2026-04-28 12:26
Airport Cork International Airport (EICK)

Arrival

Time N/A
Airport Josep Tarradellas Barcelona-El Prat Airport (LEBL)
Time Latitude Longitude Altitude Speed Heading
2026-04-28 11:52 51.85108 -8.49243 503 ft 0 kts 69°
2026-04-28 12:19 51.85105 -8.49253 503 ft 3 kts 69°
2026-04-28 12:20 51.85097 -8.49289 503 ft 3 kts 70°
2026-04-28 12:20 51.85090 -8.49318 503 ft 3 kts 52°
2026-04-28 12:20 51.85074 -8.49337 503 ft 3 kts
2026-04-28 12:20 51.85053 -8.49332 503 ft 3 kts 340°
2026-04-28 12:21 51.85034 -8.49321 503 ft 0 kts 340°
2026-04-28 12:24 51.85059 -8.49336 503 ft 6 kts 340°
2026-04-28 12:24 51.85103 -8.49362 503 ft 8 kts 340°
2026-04-28 12:24 51.85142 -8.49420 501 ft 11 kts 287°
2026-04-28 12:24 51.85080 -8.49526 488 ft 17 kts 205°
2026-04-28 12:25 51.84986 -8.49594 482 ft 6 kts 201°
2026-04-28 12:25 51.84947 -8.49588 489 ft 6 kts 161°
2026-04-28 12:25 51.84827 -8.49517 491 ft 46 kts 159°
2026-04-28 12:25 51.84292 -8.49195 477 ft 116 kts 160°
2026-04-28 12:26 51.83360 -8.48626 505 ft 165 kts 162°
2026-04-28 12:26 51.82265 -8.48091 1201 ft 163 kts 159°
2026-04-28 12:26 51.81181 -8.47570 1968 ft 162 kts 157°
2026-04-28 12:26 51.80091 -8.47031 2562 ft 168 kts 157°
2026-04-28 12:27 51.78890 -8.46565 2774 ft 188 kts 162°
2026-04-28 12:27 51.77539 -8.46128 2921 ft 208 kts 164°
2026-04-28 12:27 51.76054 -8.45665 3045 ft 227 kts 165°
2026-04-28 12:27 51.74415 -8.45152 3186 ft 252 kts 166°
2026-04-28 12:28 51.72634 -8.44591 3638 ft 268 kts 165°
2026-04-28 12:28 51.70786 -8.44009 4321 ft 273 kts 165°
2026-04-28 12:28 51.68915 -8.43415 4850 ft 275 kts 164°
2026-04-28 12:28 51.67040 -8.42818 4979 ft 274 kts 164°
2026-04-28 12:29 51.63261 -8.41600 6226 ft 278 kts 164°
2026-04-28 12:29 51.61351 -8.40979 6967 ft 281 kts 164°
2026-04-28 12:29 51.59427 -8.40351 7653 ft 284 kts 164°
2026-04-28 12:30 51.57506 -8.39727 8315 ft 287 kts 164°
2026-04-28 12:30 51.55530 -8.39087 8976 ft 291 kts 164°
2026-04-28 12:30 51.53540 -8.38444 9649 ft 294 kts 164°
2026-04-28 12:30 51.51525 -8.37793 10309 ft 297 kts 164°
2026-04-28 12:31 51.49452 -8.37123 10618 ft 314 kts 164°
2026-04-28 12:31 51.47239 -8.36399 10748 ft 335 kts 164°
2026-04-28 12:31 51.44891 -8.35632 10875 ft 355 kts 165°
2026-04-28 12:31 51.42407 -8.34826 11055 ft 372 kts 165°
2026-04-28 12:32 51.39837 -8.34001 11492 ft 379 kts 165°
2026-04-28 12:32 51.37234 -8.33173 12040 ft 383 kts 165°
2026-04-28 12:32 51.34603 -8.32336 12597 ft 387 kts 165°
2026-04-28 12:32 51.32844 -8.31774 12964 ft 390 kts 165°
2026-04-28 12:33 51.30169 -8.30918 13526 ft 394 kts 165°
2026-04-28 12:33 51.27458 -8.30055 14069 ft 399 kts 165°
2026-04-28 12:33 51.23799 -8.29108 14705 ft 406 kts 168°
2026-04-28 12:33 51.20979 -8.28568 15188 ft 410 kts 170°
2026-04-28 12:34 51.19060 -8.28252 15514 ft 413 kts 171°
2026-04-28 12:34 51.16182 -8.27807 15979 ft 416 kts 171°
2026-04-28 12:34 51.13287 -8.27356 16432 ft 420 kts 170°
2026-04-28 12:34 51.10370 -8.26880 16901 ft 423 kts 170°
2026-04-28 12:35 51.07432 -8.26373 17344 ft 426 kts 169°
2026-04-28 12:35 51.04511 -8.25847 17784 ft 430 kts 169°
2026-04-28 12:35 51.01525 -8.25296 18199 ft 434 kts 169°
2026-04-28 12:35 50.98509 -8.24758 18628 ft 438 kts 170°
2026-04-28 12:36 50.95455 -8.24332 18999 ft 442 kts 171°
2026-04-28 12:36 50.92370 -8.24002 19389 ft 446 kts 172°
2026-04-28 12:36 50.89263 -8.23724 19771 ft 449 kts 173°
2026-04-28 12:36 50.86135 -8.23453 20138 ft 452 kts 173°
2026-04-28 12:37 50.82989 -8.23161 20504 ft 454 kts 172°
2026-04-28 12:37 50.79824 -8.22846 20873 ft 457 kts 172°
2026-04-28 12:37 50.76644 -8.22507 21243 ft 459 kts 172°
2026-04-28 12:37 50.73445 -8.22154 21611 ft 462 kts 172°
2026-04-28 12:38 50.70219 -8.21797 21981 ft 465 kts 172°
2026-04-28 12:38 50.66980 -8.21439 22346 ft 468 kts 172°
2026-04-28 12:38 50.63767 -8.21087 22705 ft 471 kts 172°
2026-04-28 12:38 50.60489 -8.20732 23059 ft 473 kts 172°
2026-04-28 12:39 50.57192 -8.20380 23403 ft 477 kts 172°
2026-04-28 12:39 50.53869 -8.20030 23719 ft 480 kts 172°
2026-04-28 12:39 50.50523 -8.19679 24030 ft 483 kts 172°
2026-04-28 12:39 50.47160 -8.19320 24315 ft 485 kts 172°
2026-04-28 12:40 50.43783 -8.18960 24611 ft 488 kts 172°
2026-04-28 12:40 50.40388 -8.18602 24906 ft 490 kts 172°
2026-04-28 12:40 50.36981 -8.18242 25197 ft 492 kts 172°
2026-04-28 12:40 50.33752 -8.17900 25453 ft 494 kts 172°
2026-04-28 12:41 50.30309 -8.17537 25703 ft 497 kts 172°
2026-04-28 12:41 50.26842 -8.17177 25974 ft 499 kts 172°
2026-04-28 12:41 50.23368 -8.16820 26243 ft 501 kts 172°
2026-04-28 12:41 50.19889 -8.16458 26506 ft 503 kts 172°
2026-04-28 12:42 50.16389 -8.16088 26775 ft 505 kts 172°
2026-04-28 12:42 50.12869 -8.15712 27069 ft 507 kts 172°
2026-04-28 12:42 50.09342 -8.15337 27261 ft 511 kts 172°
2026-04-28 12:42 50.05786 -8.14965 27499 ft 513 kts 172°
2026-04-28 12:43 50.02213 -8.14592 27757 ft 515 kts 172°
2026-04-28 12:43 49.98671 -8.14222 28080 ft 515 kts 172°
2026-04-28 12:43 49.95087 -8.13857 28452 ft 514 kts 172°
2026-04-28 12:43 49.91517 -8.13499 28819 ft 514 kts 172°
2026-04-28 12:44 49.87949 -8.13135 29155 ft 514 kts 172°
2026-04-28 12:44 49.84376 -8.12765 29461 ft 515 kts 172°
2026-04-28 12:44 49.80804 -8.12388 29807 ft 514 kts 172°
2026-04-28 12:44 49.77233 -8.12011 30132 ft 514 kts 172°
2026-04-28 12:45 49.73665 -8.11638 30459 ft 514 kts 172°
2026-04-28 12:45 49.70102 -8.11271 30758 ft 513 kts 172°
2026-04-28 12:45 49.66543 -8.10906 31068 ft 513 kts 172°
2026-04-28 12:45 49.62973 -8.10544 31284 ft 515 kts 172°
2026-04-28 12:46 49.59390 -8.10183 31556 ft 515 kts 172°
2026-04-28 12:46 49.55821 -8.09823 31852 ft 512 kts 172°
2026-04-28 12:46 49.52280 -8.09463 32286 ft 508 kts 172°
2026-04-28 12:46 49.48760 -8.09109 32661 ft 506 kts 172°
2026-04-28 12:47 49.45254 -8.08755 33021 ft 504 kts 172°
2026-04-28 12:47 49.41756 -8.08395 33265 ft 505 kts 172°
2026-04-28 12:47 49.38249 -8.08033 33548 ft 505 kts 172°
2026-04-28 12:47 49.34738 -8.07676 33853 ft 504 kts 172°
2026-04-28 12:48 49.31241 -8.07322 34157 ft 503 kts 172°
2026-04-28 12:48 49.27751 -8.06973 34432 ft 502 kts 172°
2026-04-28 12:48 49.24268 -8.06627 34698 ft 501 kts 172°
2026-04-28 12:48 49.20788 -8.06278 34910 ft 501 kts 172°
2026-04-28 12:49 49.17300 -8.05922 35124 ft 501 kts 172°
2026-04-28 12:49 49.13828 -8.05564 35255 ft 501 kts 172°
2026-04-28 12:49 49.10347 -8.05206 35288 ft 500 kts 172°
2026-04-28 12:50 49.03409 -8.04523 35282 ft 499 kts 172°
2026-04-28 12:50 48.96476 -8.03839 35272 ft 500 kts 172°
2026-04-28 12:51 48.89515 -8.03144 35276 ft 501 kts 172°
2026-04-28 12:51 48.82562 -8.02449 35268 ft 501 kts 172°
2026-04-28 12:52 48.75616 -8.01763 35273 ft 501 kts 173°
2026-04-28 12:52 48.68696 -8.01088 35266 ft 501 kts 173°
2026-04-28 12:53 48.61747 -8.00265 35259 ft 499 kts 166°
2026-04-28 12:53 48.55193 -7.97321 35258 ft 486 kts 149°
2026-04-28 12:54 48.49409 -7.92240 35248 ft 480 kts 142°
2026-04-28 12:54 48.43725 -7.86933 35247 ft 481 kts 142°
2026-04-28 12:55 48.38023 -7.81635 35245 ft 481 kts 142°
2026-04-28 12:55 48.32318 -7.76342 35242 ft 482 kts 142°
2026-04-28 12:56 48.26607 -7.71057 35259 ft 483 kts 142°
2026-04-28 12:56 48.20871 -7.65764 35237 ft 484 kts 142°
2026-04-28 12:57 48.15127 -7.60470 35234 ft 485 kts 143°
2026-04-28 12:57 48.09370 -7.55191 35223 ft 485 kts 143°
2026-04-28 12:58 48.03645 -7.49955 35216 ft 486 kts 143°
2026-04-28 12:58 47.97882 -7.44676 35210 ft 486 kts 144°
2026-04-28 12:59 47.92110 -7.39404 35213 ft 486 kts 143°
2026-04-28 12:59 47.86327 -7.34152 35214 ft 487 kts 144°
2026-04-28 13:00 47.80530 -7.28918 35215 ft 487 kts 144°
2026-04-28 13:00 47.74740 -7.23686 35221 ft 487 kts 144°
2026-04-28 13:01 47.68954 -7.18458 35216 ft 487 kts 144°
2026-04-28 13:01 47.63164 -7.13249 35247 ft 486 kts 145°
2026-04-28 13:02 47.57375 -7.08062 35227 ft 486 kts 146°
2026-04-28 13:02 47.51587 -7.02897 35223 ft 486 kts 146°
2026-04-28 13:03 47.45848 -6.97755 35213 ft 485 kts 144°
2026-04-28 13:03 47.40576 -6.91660 35203 ft 481 kts 137°
2026-04-28 13:04 47.35413 -6.85390 35197 ft 480 kts 138°
2026-04-28 13:04 47.30232 -6.79153 35190 ft 480 kts 138°
2026-04-28 13:05 47.25066 -6.72924 35186 ft 480 kts 138°
2026-04-28 13:05 47.19901 -6.66687 35185 ft 480 kts 138°
2026-04-28 13:06 47.14741 -6.60479 35184 ft 479 kts 139°
2026-04-28 13:06 47.09585 -6.54292 35197 ft 478 kts 140°
2026-04-28 13:07 47.04426 -6.48135 35190 ft 478 kts 140°
2026-04-28 13:07 46.99267 -6.41993 35172 ft 478 kts 140°
2026-04-28 13:08 46.94124 -6.35859 35169 ft 477 kts 140°
2026-04-28 13:08 46.88976 -6.29746 35169 ft 476 kts 140°
2026-04-28 13:09 46.83819 -6.23654 35163 ft 476 kts 141°
2026-04-28 13:09 46.78709 -6.17612 35144 ft 475 kts 142°
2026-04-28 13:10 46.73566 -6.11558 35151 ft 475 kts 142°
2026-04-28 13:10 46.68422 -6.05527 35175 ft 474 kts 143°
2026-04-28 13:11 46.63281 -5.99509 35164 ft 474 kts 143°
2026-04-28 13:11 46.58137 -5.93502 35158 ft 474 kts 143°
2026-04-28 13:12 46.52987 -5.87488 35152 ft 474 kts 143°
2026-04-28 13:12 46.47841 -5.81487 35145 ft 474 kts 143°
2026-04-28 13:13 46.42684 -5.75506 35143 ft 475 kts 143°
2026-04-28 13:13 46.37519 -5.69537 35123 ft 475 kts 144°
2026-04-28 13:14 46.32347 -5.63575 35127 ft 475 kts 144°
2026-04-28 13:14 46.27171 -5.57617 35144 ft 476 kts 145°
2026-04-28 13:15 46.22020 -5.51704 35116 ft 476 kts 145°
2026-04-28 13:15 46.16827 -5.45753 35109 ft 477 kts 145°
2026-04-28 13:16 46.11627 -5.39806 35107 ft 477 kts 145°
2026-04-28 13:16 46.06411 -5.33859 35111 ft 477 kts 145°
2026-04-28 13:17 46.01196 -5.27931 35101 ft 478 kts 145°
2026-04-28 13:17 45.95982 -5.22021 35104 ft 478 kts 145°
2026-04-28 13:18 45.90752 -5.16115 35105 ft 478 kts 145°
2026-04-28 13:18 45.85532 -5.10218 35084 ft 477 kts 146°
2026-04-28 13:19 45.80323 -5.04348 35106 ft 476 kts 146°
2026-04-28 13:19 45.75118 -4.98502 35112 ft 475 kts 146°
2026-04-28 13:20 45.61208 -4.82941 35097 ft 472 kts 147°
2026-04-28 13:20 45.40559 -4.60029 35096 ft 468 kts 147°
2026-04-28 13:21 45.20066 -4.37528 35070 ft 463 kts 147°
2026-04-28 13:21 44.99706 -4.15373 35053 ft 460 kts 147°
2026-04-28 13:22 44.79435 -3.93509 35045 ft 457 kts 147°
2026-04-28 13:22 44.59211 -3.71882 35033 ft 456 kts 148°
2026-04-28 13:23 44.39127 -3.50608 35023 ft 455 kts 148°
2026-04-28 13:23 44.18938 -3.29419 35014 ft 454 kts 148°
2026-04-28 13:24 43.98845 -3.08113 35012 ft 455 kts 145°
2026-04-28 13:24 43.79280 -2.85969 35006 ft 453 kts 145°
2026-04-28 13:25 43.59676 -2.64138 35003 ft 451 kts 145°
2026-04-28 13:25 43.41660 -2.44236 35003 ft 450 kts 145°
2026-04-28 13:26 43.22082 -2.22792 35003 ft 449 kts 145°
2026-04-28 13:26 43.02502 -2.01527 34987 ft 448 kts 145°
2026-04-28 13:27 42.82887 -1.80399 34964 ft 449 kts 145°
2026-04-28 13:27 42.73477 -1.69251 34930 ft 456 kts 129°
2026-04-28 13:27 42.67687 -1.53804 34962 ft 460 kts 119°
2026-04-28 13:28 42.63324 -1.41612 34953 ft 449 kts 119°
2026-04-28 13:28 42.60649 -1.34103 34949 ft 439 kts 119°
2026-04-28 13:29 42.58005 -1.26637 34937 ft 439 kts 118°
2026-04-28 13:29 42.56697 -1.22946 34791 ft 441 kts 118°
2026-04-28 13:29 42.55358 -1.19183 34174 ft 444 kts 118°
2026-04-28 13:29 42.54026 -1.15444 33893 ft 435 kts 118°
2026-04-28 13:30 42.52715 -1.11769 33483 ft 430 kts 118°
2026-04-28 13:30 42.51420 -1.08146 33045 ft 426 kts 118°
2026-04-28 13:30 42.50131 -1.04543 32584 ft 423 kts 118°
2026-04-28 13:30 42.48852 -1.00978 32121 ft 420 kts 118°
2026-04-28 13:31 42.46316 -0.93911 31209 ft 414 kts 118°
2026-04-28 13:31 42.45058 -0.90410 30772 ft 411 kts 118°
2026-04-28 13:31 42.42443 -0.83164 29806 ft 405 kts 119°
2026-04-28 13:32 42.37558 -0.69663 27926 ft 392 kts 118°
2026-04-28 13:32 42.32815 -0.56612 26126 ft 382 kts 119°
2026-04-28 13:32 42.28167 -0.43886 24513 ft 373 kts 119°
2026-04-28 13:32 42.26783 -0.40103 24060 ft 371 kts 120°
2026-04-28 13:33 42.25640 -0.36985 23664 ft 370 kts 120°
2026-04-28 13:33 42.24500 -0.33879 23214 ft 369 kts 120°
2026-04-28 13:33 42.23363 -0.30792 22767 ft 367 kts 119°
2026-04-28 13:33 42.22231 -0.27718 22308 ft 365 kts 119°
2026-04-28 13:34 42.21100 -0.24647 21820 ft 365 kts 120°
2026-04-28 13:34 42.19972 -0.21581 21311 ft 365 kts 119°
2026-04-28 13:34 42.18845 -0.18518 20835 ft 364 kts 119°
2026-04-28 13:34 42.17718 -0.15470 20381 ft 364 kts 119°
2026-04-28 13:35 42.16587 -0.12422 19915 ft 363 kts 119°
2026-04-28 13:35 42.15460 -0.09381 19465 ft 362 kts 119°
2026-04-28 13:35 42.14333 -0.06341 18992 ft 362 kts 119°
2026-04-28 13:35 42.13210 -0.03314 18560 ft 361 kts 119°
2026-04-28 13:36 42.12089 -0.00295 18090 ft 360 kts 119°
2026-04-28 13:36 42.10973 0.02716 17567 ft 359 kts 119°
2026-04-28 13:36 42.09860 0.05713 17073 ft 358 kts 119°
2026-04-28 13:36 42.08757 0.08678 16589 ft 363 kts 119°
2026-04-28 13:37 42.07571 0.11844 16105 ft 389 kts 118°
2026-04-28 13:37 42.06338 0.15130 15169 ft 400 kts 119°
2026-04-28 13:37 42.05078 0.18495 14344 ft 404 kts 118°
2026-04-28 13:37 42.03823 0.21862 13754 ft 400 kts 118°
2026-04-28 13:38 42.02588 0.25179 13119 ft 395 kts 118°
2026-04-28 13:38 42.01373 0.28433 12200 ft 383 kts 118°
2026-04-28 13:38 42.00183 0.31601 10971 ft 375 kts 118°
2026-04-28 13:38 41.99017 0.34695 10599 ft 364 kts 118°
2026-04-28 13:39 41.97933 0.37637 10433 ft 337 kts 115°
2026-04-28 13:39 41.97152 0.40530 9894 ft 323 kts 111°
2026-04-28 13:39 41.96430 0.43345 9721 ft 313 kts 111°
2026-04-28 13:39 41.95738 0.46056 9576 ft 301 kts 111°
2026-04-28 13:40 41.95071 0.48670 9446 ft 290 kts 111°
2026-04-28 13:40 41.94427 0.51191 9195 ft 282 kts 111°
2026-04-28 13:40 41.93793 0.53666 8982 ft 279 kts 111°
2026-04-28 13:40 41.93159 0.56132 8967 ft 280 kts 111°
2026-04-28 13:41 41.92531 0.58569 8974 ft 280 kts 111°
2026-04-28 13:41 41.91892 0.61035 8966 ft 279 kts 112°
2026-04-28 13:41 41.91256 0.63496 8974 ft 279 kts 111°
2026-04-28 13:41 41.90616 0.65962 8968 ft 280 kts 111°
2026-04-28 13:42 41.89977 0.68430 8974 ft 280 kts 111°
2026-04-28 13:42 41.89340 0.70898 8975 ft 280 kts 111°
2026-04-28 13:42 41.88701 0.73368 8972 ft 280 kts 111°
2026-04-28 13:42 41.88064 0.75833 8975 ft 279 kts 111°
2026-04-28 13:43 41.87427 0.78291 8972 ft 279 kts 111°
2026-04-28 13:43 41.86783 0.80765 8966 ft 280 kts 111°
2026-04-28 13:43 41.86142 0.83229 8974 ft 280 kts 111°
2026-04-28 13:43 41.85503 0.85685 8970 ft 278 kts 111°
2026-04-28 13:44 41.84864 0.88136 8967 ft 279 kts 111°
2026-04-28 13:44 41.84221 0.90599 8969 ft 280 kts 111°
2026-04-28 13:44 41.83575 0.93070 8977 ft 281 kts 111°
2026-04-28 13:44 41.82977 0.95364 8970 ft 280 kts 111°